IRIDIUM 33 DEB, 34487

Orbit data source: Space-Track

IRIDIUM 33 DEB, 34487 is space debris in LEO originally from a launch on Sun, 14 Sep 1997 UTC launched from the Tyuratam Missile And Space Complex (TTMTR). The debris from Iridium 33, an American commercial communications satellite, has been tracked extensively since its accidental collision with the defunct Russian satellite Cosmos 2251 in 2009. This event, occurring at high speed in low Earth orbit (LEO), generated thousands of pieces of space debris, significantly increasing the risk of further collisions. The Iridium 33 debris cloud has impacted space traffic management and orbital debris mitigation strategies, making it a subject of ongoing study in space situational awareness.

Loading next visibility...
Identifier
34487, 1997-051GC
Orbit
LEO
Country
Flag of USUS
Related business
Manufacturer
Unknown
Mission
Spacecraft
Bus & Motor
Unknown
Mass
Unknown
Launch date (UTC)
1997-09-14 (29 years ago)
Launch vehicle
Unknown
Launch site
Tyuratam Missile And Space Complex (TTMTR)
Object type
Payload
Rocket body
Debris
Shape & HBR
Unknown shape, 0.091 m
Radar Cross Section
Medium (>0.1 m² and <1 m²)

Expand to show TLE details & history
Last TLE update: 2 days ago

TLE from 2 days ago
0 IRIDIUM 33 DEB
1 34487U 97051GC  26265.47074078  .00000393  00000-0  10982-3 0  9994
2 34487  86.3385 250.1715 0028494 272.3640 218.4609 14.43567104923417
Epoch: 2026-09-22T11:17Z
TLE epoch observation values (Epoch: 2026-09-22T11:17:52.003Z)
Latitude
49.33937°
Longitude
-104.88071°
Altitude
770.561 km
Speed
7.465 km/s
True Right ascension
04h 23m 41s
True Declination
49° 10' 11"
Sunlit
Object was in daylight at epoch
Visualization orbit readout
Latitude
Unknown
Longitude
Unknown
Altitude
Unknown
Speed
Unknown
Apparent Right ascension
Unknown
Apparent Declination
Unknown
Sunlit
N/A
Visualization observer readout
Local Sidereal Time
18:34:09
Azimuth
Unknown
Elevation
Unknown
Doppler factor
Unknown
Orbital elements
Apogee altitude
763.982 km
Perigee altitude
723.397 km
Semi-major axis
7,121.826 km
Eccentricity
0.00285
Inclination
86.3385°
RAAN
250.1715°
Arg. of periapsis
272.364°
True anomaly
218.25838°
Mean anomaly
218.4609°
Eccentric anomaly
218.35958°
Mean motion
3.61124 °/min
Orbital period
99.69 mins
BSTAR
0.00010982

Documentation

Showing up to 5 results
|